Flag for U.S.A. Weather past 2 weeks in Spartanburg, South Carolina, U.S.A.

Now
84 °F

Warm.


Feels Like: 86 °F
Forecast: 70 / 93 °F
Wind: No wind

Location: Spartanburg Memorial

Current Time: Aug 2, 2015 at 9:10:06 PM

Latest Report: Aug 2, 2015 at 8:35 PM


Visibility: 10 mi

Pressure: 29.91 "Hg

Humidity: 51%

Dew point: 64 °F

Location of SpartanburgLocation

Historic Weather in Spartanburg — Graph

°F

Spartanburg temperature yesterday

Maximum temperature yesterday: 93 °F (at 4:55 PM)
Minimum temperature yesterday: 72 °F (at 6:35 AM)
Average temperature yesterday: 83 °F

Past Weeks' High & Low Weather Summary

 TemperatureHumidityPressure
High97 °F (Jul 30, 3:35 PM)100% (Jul 18, 9:55 PM)30.04 "Hg (Jul 18, 9:55 PM)
Low68 °F (Aug 2, 5:35 AM)26% (Aug 1, 3:15 PM)29.77 "Hg (Jul 21, 3:55 PM)
Average81 °F70%29.95 "Hg
* Reported Jul 18 7:15 PM — Aug 2 7:55 PM, Spartanburg, Weather by CustomWeather, © 2015

Note: Actual official high and low records may vary slightly from our data, if they occured in-between our weather recording intervals... More about our weather records

Advertising

Spartanburg weather history for previous 24 hours

 ConditionsComfort  
Time TempWeatherWind HumidityBarometerVisibility
7:55 PM
Sun, Aug 2
88 °FWarm.No wind43%29.90 "Hg10 mi
7:35 PM90 °FHot.3 mph38%29.90 "Hg10 mi
7:15 PM90 °FHot.No wind38%29.90 "Hg10 mi
6:55 PM91 °FHot.No wind34%29.90 "Hg10 mi
6:15 PM91 °FHot.5 mph32%29.91 "Hg10 mi
5:55 PM93 °FExtremely hot.6 mph28%29.91 "Hg10 mi
5:35 PM93 °FExtremely hot.No wind28%29.91 "Hg10 mi
4:55 PM93 °FExtremely hot.3 mph28%29.92 "Hg10 mi
4:35 PM93 °FExtremely hot.No wind28%29.93 "Hg10 mi
4:15 PM91 °FHot.5 mph32%29.93 "Hg10 mi
3:55 PM93 °FExtremely hot.8 mph30%29.94 "Hg10 mi
3:35 PM95 °FExtremely hot.6 mph30%29.94 "Hg10 mi
3:15 PM93 °FExtremely hot.8 mph32%29.95 "Hg10 mi
2:55 PM91 °FHot.No wind34%29.95 "Hg10 mi
2:35 PM91 °FHot.5 mph34%29.95 "Hg10 mi
2:15 PM90 °FHot.5 mph36%29.96 "Hg10 mi
1:55 PM91 °FHot.8 mph36%29.97 "Hg10 mi
1:35 PM91 °FHot.5 mph36%29.97 "Hg10 mi
1:15 PM90 °FHot.7 mph38%29.98 "Hg10 mi
12:55 PM90 °FHot.3 mph38%29.98 "Hg10 mi
12:35 PM90 °FHot.9 mph38%29.99 "Hg10 mi
12:15 PM88 °FWarm.5 mph40%30.00 "Hg10 mi
11:55 AM88 °FWarm.7 mph40%30.00 "Hg10 mi
11:35 AM86 °FWarm.6 mph43%30.00 "Hg10 mi
11:15 AM86 °FWarm.7 mph43%30.00 "Hg10 mi
10:55 AM84 °FWarm.7 mph45%30.00 "Hg10 mi
10:35 AM82 °FWarm.7 mph48%30.00 "Hg10 mi
10:15 AM82 °FWarm.6 mph48%30.00 "Hg10 mi
9:55 AM81 °FWarm.6 mph51%30.00 "Hg10 mi
9:35 AM81 °FWarm.3 mph54%30.00 "Hg10 mi
9:15 AM79 °FWarm.6 mph54%30.00 "Hg10 mi
8:55 AM77 °FWarm.7 mph61%29.99 "Hg10 mi
8:35 AM75 °FMild.7 mph61%29.99 "Hg10 mi
8:15 AM73 °FMild.7 mph65%29.99 "Hg10 mi
7:55 AM72 °FMild.6 mph69%29.99 "Hg10 mi
7:35 AM70 °FMild.6 mph73%29.99 "Hg10 mi
7:15 AM70 °FMild.6 mph73%29.98 "Hg10 mi
6:55 AM70 °FMild.7 mph73%29.98 "Hg10 mi
6:35 AM70 °FMild.8 mph73%29.97 "Hg10 mi
6:15 AM68 °FMild.5 mph78%29.96 "Hg10 mi
5:55 AM68 °FMild.No wind78%29.96 "Hg10 mi
5:35 AM68 °FMild.No wind83%29.95 "Hg10 mi
5:15 AM70 °FMild.3 mph73%29.95 "Hg10 mi
4:55 AM70 °FMild.No wind73%29.95 "Hg10 mi
4:35 AM70 °FMild.No wind73%29.94 "Hg10 mi
4:15 AM70 °FMild.No wind73%29.95 "Hg10 mi
3:55 AM70 °FMild.No wind73%29.94 "Hg10 mi
3:35 AM72 °FMild.5 mph65%29.94 "Hg10 mi
3:15 AM70 °FMild.3 mph73%29.95 "Hg10 mi
2:55 AM72 °FMild.No wind65%29.95 "Hg10 mi
2:35 AM72 °FMild.No wind69%29.95 "Hg10 mi
2:15 AM73 °FMild.3 mph61%29.95 "Hg10 mi
1:55 AM75 °FMild.3 mph57%29.96 "Hg10 mi
1:35 AM77 °FWarm.5 mph54%29.96 "Hg10 mi
1:15 AM77 °FWarm.5 mph54%29.96 "Hg10 mi
12:55 AM77 °FWarm.6 mph54%29.96 "Hg10 mi
12:15 AM77 °FWarm.6 mph54%29.95 "Hg10 mi
11:55 PM
Sat, Aug 1
75 °FMild.3 mph61%29.95 "Hg10 mi
11:35 PM77 °FWarm.3 mph54%29.95 "Hg10 mi
11:15 PM79 °FWarm.5 mph51%29.96 "Hg10 mi
10:55 PM81 °FWarm.3 mph45%29.95 "Hg10 mi
10:35 PM81 °FWarm.6 mph48%29.95 "Hg10 mi
10:15 PM82 °FWarm.6 mph42%29.94 "Hg10 mi
9:55 PM82 °FWarm.6 mph42%29.94 "Hg10 mi
9:35 PM82 °FWarm.6 mph42%29.93 "Hg10 mi
Weather by CustomWeather, © 2015

See weather overviewHow to use our weather pages